Location: Erdweis
(48.5167°N, 15.3500°E)
Time: 01:31:53
(UTC+00:00)

ATLAS 2AS CENTAUR R/B - Pass Details

Date: 18 September 2020
Orbit: 939 x 1273 km, 63.7° (Epoch: 27 October)

Event Time Altitude Azimuth Distance (km) Brightness Sun altitude
Rises 19:13:01 0° 185° (S) 4,181 5.6 -21.2°
Reaches altitude 10° 19:16:01 10° 177° (S) 3,239 4.9 -21.7°
Enters shadow 19:16:58 14° 173° (S) 2,960 4.7 -21.8°
Exits shadow 19:24:46 33° 89° (E) 1,997 3.6 -22.9°
Drops below altitude 10° 19:30:04 10° 52° (NE) 3,246 5.0 -23.7°
Sets 19:33:04 0° 44° (NE) 4,191 5.7 -24.1°
